Tracking 17856 objects as of 27-September-2016
HD Live streaming from Space Station
objects crossing your sky now

NANOSAT 1B

Track NANOSAT 1B now!
10-day predictions
NANOSAT 1B is classified as:


NORAD ID: 35685
Int'l Code: 2009-041E
Perigee: 583.2 km
Apogee: 665.8 km
Inclination: 98.2 °
Period: 97.0 minutes
Semi major axis: 6995 km
RCS: 0.248 m2 (medium)
Launch date: July 29, 2009
Source: Spain (SPN)
Launch site: TYURATAM MISSILE AND SPACE COMPLEX (TTMTR)

Nanosat 1B is a small testbed for the Spanish space agency. The satellite, stretching about 20 inches [50 cm] in diameter, will demonstrate basic space technologies.
Your satellite tracking list
Your tracking list is empty





NASA's NSSDC Master Catalog

Two Line Element Set (TLE):
1 35685U 09041E   16269.86623870  .00000246  00000-0  35978-4 0  9993
2 35685  98.2013 230.4384 0059040 186.5839 173.4605 14.83790196387062
Source of the keplerian elements: AFSPC

N2YO: 479